This is the latest recevied weather packets stored in our database for station/object OE9XVI-6. If no packets are shown the sender has not sent any weather packets the latest 10 day(s).
| Time | Temp. | Humidity | Pressure | Rain* | Wind** | Luminosity | Snow |
|---|---|---|---|---|---|---|---|
| 1777957614 | 10° C | 59% | 1010.8 hPa | 0 mm | - | - | - |
| 1777957014 | 9.44° C | 57% | 1010.9 hPa | 0 mm | - | - | - |
| 1777956414 | 9.44° C | 56% | 1010.9 hPa | 0 mm | - | - | - |
| 1777955814 | 9.44° C | 56% | 1010.8 hPa | 0 mm | - | - | - |
| 1777955214 | 8.89° C | 57% | 1010.8 hPa | 0 mm | - | - | - |
| 1777954615 | 8.89° C | 58% | 1010.7 hPa | 0 mm | - | - | - |
| 1777954015 | 8.89° C | 57% | 1010.9 hPa | 0 mm | - | - | - |
| 1777953415 | 8.89° C | 56% | 1010.8 hPa | 0 mm | - | - | - |
| 1777952815 | 8.89° C | 58% | 1011.1 hPa | 0 mm | - | - | - |
| 1777952215 | 9.44° C | 59% | 1011.2 hPa | 0 mm | - | - | - |
| 1777951615 | 8.89° C | 58% | 1011.3 hPa | 0 mm | - | - | - |
| 1777951015 | 9.44° C | 56% | 1011.3 hPa | 0 mm | - | - | - |
| 1777950415 | 9.44° C | 57% | 1011.4 hPa | 0 mm | - | - | - |
| 1777949815 | 9.44° C | 58% | 1011.5 hPa | 0 mm | - | - | - |
| 1777949215 | 9.44° C | 57% | 1011.6 hPa | 0 mm | - | - | - |
| 1777948615 | 9.44° C | 58% | 1011.6 hPa | 0 mm | - | - | - |
| 1777948015 | 9.44° C | 57% | 1011.6 hPa | 0 mm | - | - | - |
| 1777947415 | 9.44° C | 58% | 1011.9 hPa | 0 mm | - | - | - |
| 1777946815 | 9.44° C | 56% | 1011.9 hPa | 0 mm | - | - | - |
| 1777946215 | 9.44° C | 56% | 1011.9 hPa | 0 mm | - | - | - |
| 1777945615 | 9.44° C | 54% | 1012.1 hPa | 0 mm | - | - | - |
| 1777945015 | 9.44° C | 57% | 1012.2 hPa | 0 mm | - | - | - |
| 1777944415 | 9.44° C | 56% | 1012.2 hPa | 0 mm | - | - | - |
| 1777943815 | 9.44° C | 54% | 1012.3 hPa | 0 mm | - | - | - |
| 1777943215 | 10° C | 54% | 1012.6 hPa | 0 mm | - | - | - |
* Rain latest hour (hover to see other rain measurements)
** Current wind speed in m/s (hover to see current wind gust speed)